Change the Weather History Date:

Thursday, June 27, 2013

  Actual Average Record
Temperature  
Mean Temperature 76 °F -  
Max Temperature 93 °F - - ()
Min Temperature 60 °F - - ()
Cooling Degree Days 12    
Growing Degree Days 26 (Base 50)    
Moisture  
Dew Point 58 °F    
Average Humidity 53    
Maximum Humidity 88    
Minimum Humidity 16    
Precipitation  
Precipitation 0.00 in - - ()
Sea Level Pressure  
Sea Level Pressure 29.85 in    
Wind  
Wind Speed 3 mph ()    
Max Wind Speed 12 mph    
Max Gust Speed -    
Visibility 6.6 miles    
Events      
T = Trace of Precipitation, MM = Missing Value Source: Averaged Metar Reports

Daily Weather History Graph

Daily Weather History Graph

Search for Another Location

Airport or City:

Trip Planner

Search our weather history database for the weather conditions in past years. The results will help you decide how hot, cold, wet, or windy it might be!

Date:

Astronomy

Jun. 27, 2013 Rise Set
Actual Time 5:52 AM AWST 5:04 PM AWST
Civil Twilight 5:28 AM AWST 5:27 PM AWST
Nautical Twilight 5:02 AM AWST 5:54 PM AWST
Astronomical Twilight 4:35 AM AWST 6:20 PM AWST
Moon 9:07 PM AWST (6/27) 8:56 AM AWST (6/27)
Length of Visible Light 11h 58m
Length of Day
11h 11m
Waning Gibbous, 81% of the Moon is Illuminated
Jun 27
Waning Gibbous
Jun 30
Last Quarter
Jul 8
New
Jul 16
First Quarter
Jul 23
Full

Hourly Weather History & Observations

Time (AWST) Temp. Heat Index Dew Point Humidity Pressure Visibility Wind Dir Wind Speed Gust Speed Precip Events Conditions
12:00 AM 66 °F - 57 °F 65% 29.88 in - Calm Calm - -  
12:00 AM 66.2 °F - 57.2 °F 73% 29.86 in 6.2 mi Calm Calm - N/A   Unknown
12:30 AM 66.2 °F - 57.2 °F 73% 29.86 in 6.2 mi North 3.5 mph - N/A   Unknown
1:00 AM 64.4 °F - 55.4 °F 73% 29.86 in 6.2 mi North 3.5 mph - N/A   Unknown
1:30 AM 64.4 °F - 57.2 °F 77% 29.86 in 6.2 mi Calm Calm - N/A   Unknown
2:00 AM 63 °F - 56 °F 71% 29.86 in - Calm Calm - -  
2:00 AM 62.6 °F - 55.4 °F 77% 29.86 in 6.2 mi Calm Calm - N/A   Unknown
2:30 AM 64.4 °F - 57.2 °F 77% 29.86 in 6.2 mi Calm Calm - N/A   Unknown
3:00 AM 62.6 °F - 55.4 °F 77% 29.86 in 6.2 mi Calm Calm - N/A   Unknown
3:30 AM 62.6 °F - 57.2 °F 82% 29.86 in 6.2 mi Calm Calm - N/A   Unknown
4:00 AM 62.6 °F - 59.0 °F 88% 29.86 in 6.2 mi Calm Calm - N/A   Unknown
4:30 AM 62.6 °F - 59.0 °F 88% 29.86 in 6.2 mi Calm Calm - N/A   Unknown
5:00 AM 61 °F - 57 °F 82% 29.88 in - Calm Calm - -  
5:00 AM 60.8 °F - 57.2 °F 88% 29.86 in 6.2 mi Calm Calm - N/A   Unknown
5:30 AM 62.6 °F - 57.2 °F 82% 29.86 in 6.2 mi Calm Calm - N/A   Unknown
6:00 AM 63 °F - 57 °F 76% 29.88 in 6 mi Calm Calm - -   Partly Cloudy
6:00 AM 62.6 °F - 57.2 °F 82% 29.89 in 6.2 mi Calm Calm - N/A   Unknown
6:30 AM 64.4 °F - 59.0 °F 83% 29.89 in 6.2 mi Calm Calm - N/A   Unknown
7:00 AM 68.0 °F - 59.0 °F 73% 29.89 in 6.2 mi SE 1.2 mph - N/A   Unknown
7:30 AM 73.4 °F - 59.0 °F 61% 29.89 in 6.2 mi Calm Calm - N/A   Unknown
8:00 AM 76 °F - 52 °F 33% 29.91 in - NNE 1.2 mph - -  
8:00 AM 77.0 °F - 51.8 °F 41% 29.92 in 6.2 mi NNE 1.2 mph - N/A   Unknown
8:30 AM 78.8 °F - 53.6 °F 42% 29.92 in 6.2 mi ESE 3.5 mph - N/A   Unknown
9:00 AM 81 °F - 56 °F 32% 29.91 in 12 mi ENE 4.6 mph - -   Partly Cloudy
9:00 AM 80.6 °F 80.5 °F 55.4 °F 42% 29.92 in 6.2 mi ENE 4.6 mph - N/A   Unknown
9:30 AM 84.2 °F 83.0 °F 55.4 °F 37% 29.89 in 6.2 mi ENE 4.6 mph - N/A   Unknown
10:00 AM 87.8 °F 86.1 °F 55.4 °F 33% 29.89 in 6.2 mi ENE 6.9 mph - N/A   Unknown
10:30 AM 87.8 °F - 51.8 °F 29% 29.86 in 6.2 mi NE 6.9 mph - N/A   Unknown
11:00 AM 90 °F - 50 °F 16% 29.87 in - NNE 6.9 mph - -  
11:00 AM 89.6 °F - 50.0 °F 26% 29.86 in 6.2 mi NNE 6.9 mph - N/A   Unknown
11:30 AM 89.6 °F - 51.8 °F 27% 29.86 in 6.2 mi North 6.9 mph - N/A   Unknown
12:00 PM 91 °F - 54 °F 19% 29.84 in - NNE 8.1 mph - -  
12:00 PM 91.4 °F 89.1 °F 53.6 °F 28% 29.83 in 6.2 mi NNE 8.1 mph - N/A   Unknown
12:30 PM 91.4 °F 89.1 °F 53.6 °F 28% 29.83 in 6.2 mi North 9.2 mph - N/A   Unknown
1:00 PM 93.2 °F 90.8 °F 53.6 °F 26% 29.80 in 6.2 mi NNE 8.1 mph - N/A   Unknown
1:30 PM 93.2 °F - 51.8 °F 24% 29.80 in 6.2 mi NNE 11.5 mph - N/A   Unknown
2:00 PM 92 °F - 53 °F 17% 29.79 in - NNE 9.2 mph - -  
2:00 PM 91.4 °F - 51.8 °F 26% 29.77 in 6.2 mi NNE 9.2 mph - N/A   Unknown
2:30 PM 93.2 °F - 51.8 °F 24% 29.77 in 6.2 mi NNE 9.2 mph - N/A   Unknown
3:00 PM 92 °F - 51 °F 16% 29.78 in 19 mi NNE 6.9 mph - -   Partly Cloudy
3:00 PM 91.4 °F - 51.8 °F 26% 29.77 in 6.2 mi NNE 6.9 mph - N/A   Unknown
3:30 PM 91.4 °F 89.1 °F 53.6 °F 28% 29.77 in 6.2 mi NNE 8.1 mph - N/A   Unknown
4:00 PM 89.6 °F 87.7 °F 55.4 °F 31% 29.77 in 6.2 mi North 6.9 mph - N/A   Unknown
4:30 PM 87.8 °F 87.1 °F 59.0 °F 38% 29.80 in 6.2 mi North 6.9 mph - N/A   Unknown
5:00 PM 85 °F - 59 °F 31% 29.81 in - North 6.9 mph - -  
5:00 PM 86.0 °F 85.4 °F 59.0 °F 40% 29.80 in 6.2 mi North 6.9 mph - N/A   Unknown
5:30 PM 84.2 °F 83.8 °F 59.0 °F 42% 29.80 in 6.2 mi North 8.1 mph - N/A   Unknown
6:00 PM 83 °F - 59 °F 34% 29.83 in - NNE 9.2 mph - -  
6:00 PM 82.4 °F 82.5 °F 59.0 °F 45% 29.83 in 6.2 mi NNE 9.2 mph - N/A   Unknown
6:30 PM 82.4 °F 83.9 °F 64.4 °F 54% 29.83 in 6.2 mi North 10.4 mph - N/A   Unknown
7:00 PM 80.6 °F 82.7 °F 66.2 °F 61% 29.86 in 6.2 mi North 9.2 mph - N/A   Unknown
7:30 PM 78.8 °F - 66.2 °F 65% 29.86 in 6.2 mi NNE 8.1 mph - N/A   Unknown
8:00 PM 78 °F - 67 °F 60% 29.87 in - North 8.1 mph - -  
8:00 PM 78.8 °F - 66.2 °F 65% 29.86 in 6.2 mi North 8.1 mph - N/A   Unknown
8:30 PM 77.0 °F - 66.2 °F 69% 29.86 in 6.2 mi North 8.1 mph - N/A   Unknown
9:00 PM 78 °F - 66 °F 59% 29.88 in - North 6.9 mph - -  
9:00 PM 78.8 °F - 66.2 °F 65% 29.89 in 6.2 mi North 6.9 mph - N/A   Unknown
9:30 PM 77.0 °F - 66.2 °F 69% 29.89 in 6.2 mi NNE 6.9 mph - N/A   Unknown
10:00 PM 75.2 °F - 68.0 °F 78% 29.89 in 6.2 mi NNE 4.6 mph - N/A   Scattered Clouds
10:30 PM 75.2 °F - 66.2 °F 73% 29.89 in 6.2 mi West 4.6 mph - N/A   Scattered Clouds
11:00 PM 75 °F - 67 °F 69% 29.89 in - North 5.8 mph - -  
11:00 PM 75.2 °F - 66.2 °F 73% 29.89 in 6.2 mi North 5.8 mph - N/A   Mostly Cloudy
11:30 PM 75.2 °F - 68.0 °F 78% 29.89 in 6.2 mi NNW 3.5 mph - N/A   Mostly Cloudy